Universal City, TX

6:41 AM CST on December 06, 2016 (GMT -0600)
Randolph Air Force Base

Weather History for KRND - March, 2014

Change the Weather History Date:

Sunday, March 2, 2014

  Actual Average Record
Temperature  
Mean Temperature 51 °F -  
Max Temperature 72 °F 66 °F 89 °F (1999)
Min Temperature 30 °F 46 °F 30 °F (2009)
Degree Days  
Heating Degree Days 14    
Growing Degree Days 1 (Base 50)    
Moisture  
Dew Point 51 °F    
Average Humidity 84    
Maximum Humidity 94    
Minimum Humidity 70    
Precipitation  
Precipitation 0.00 in - - ()
Sea Level Pressure  
Sea Level Pressure 29.99 in    
Wind  
Wind Speed 11 mph (ENE)    
Max Wind Speed 25 mph    
Max Gust Speed 34 mph    
Visibility 9 miles    
Events Rain    
Averages and records for this station are not official NWS values.
T = Trace of Precipitation, MM = Missing Value Source: NWS Daily Summary

Daily Weather History Graph

Daily Weather History Graph

Search for Another Location

Airport or City:

Trip Planner

Search our weather history database for the weather conditions in past years. The results will help you decide how hot, cold, wet, or windy it might be!

Date:

Astronomy

Mar. 02, 2014 Rise Set
Actual Time 6:57 AM CST 6:33 PM CST
Civil Twilight 6:33 AM CST 6:57 PM CST
Nautical Twilight 6:06 AM CST 7:24 PM CST
Astronomical Twilight 5:38 AM CST 7:52 PM CST
Moon 7:39 AM CST (3/2) 8:18 PM CST (3/2)
Length of Visible Light 12h 23m
Length of Day
11h 35m
Waxing Crescent, 3% of the Moon is Illuminated
Mar 2
Waxing Crescent
Mar 8
First Quarter
Mar 16
Full
Mar 23
Last Quarter
Mar 30
New

Hourly Weather History & Observations

Time (CST) Temp. Windchill Dew Point Humidity Pressure Visibility Wind Dir Wind Speed Gust Speed Precip Events Conditions
12:58 AM 69.6 °F - 64.9 °F 85% 29.93 in 10.0 mi SSE 8.1 mph - N/A   Scattered Clouds
1:13 AM 69.8 °F - 64.4 °F 83% 29.94 in 10.0 mi SSE 9.2 mph - N/A   Mostly Cloudy
1:43 AM 69.8 °F - 64.4 °F 83% 29.94 in 10.0 mi SE 8.1 mph - N/A   Scattered Clouds
1:58 AM 68.9 °F - 64.9 °F 87% 29.92 in 10.0 mi SSE 6.9 mph - N/A   Scattered Clouds
2:03 AM 68.0 °F - 64.4 °F 88% 29.94 in 10.0 mi SE 8.1 mph - N/A   Mostly Cloudy
2:23 AM 68.0 °F - 64.4 °F 88% 29.94 in 10.0 mi SSE 9.2 mph - N/A   Scattered Clouds
2:58 AM 68.5 °F - 65.3 °F 89% 29.90 in 10.0 mi SSE 6.9 mph - N/A   Scattered Clouds
3:58 AM 68.5 °F - 65.3 °F 89% 29.89 in 10.0 mi SSE 8.1 mph - N/A   Scattered Clouds
4:58 AM 68.9 °F - 65.7 °F 89% 29.88 in 10.0 mi South 9.2 mph - N/A   Partly Cloudy
5:53 AM 69.8 °F - 66.2 °F 88% 29.92 in 10.0 mi SSE 6.9 mph - N/A   Mostly Cloudy
5:58 AM 69.8 °F - 66.2 °F 88% 29.90 in 10.0 mi SSE 6.9 mph - N/A   Mostly Cloudy
6:13 AM 69.8 °F - 66.2 °F 88% 29.92 in 10.0 mi SSE 6.9 mph - N/A   Scattered Clouds
6:58 AM 69.3 °F - 66.2 °F 90% 29.91 in 10.0 mi SSE 8.1 mph - N/A   Scattered Clouds
7:58 AM 69.6 °F - 66.6 °F 90% 29.91 in 9.0 mi ESE 8.1 mph - N/A   Mostly Cloudy
8:03 AM 69.8 °F - 66.2 °F 88% 29.93 in 9.0 mi SE 9.2 mph - N/A   Scattered Clouds
8:58 AM 71.6 °F - 66.2 °F 83% 29.91 in 8.0 mi SSE 12.7 mph - N/A   Mostly Cloudy
9:08 AM 71.6 °F - 66.2 °F 83% 29.94 in 8.0 mi SE 11.5 mph - N/A   Scattered Clouds
9:58 AM 71.4 °F - 67.1 °F 86% 29.94 in 7.0 mi SE 13.8 mph - N/A   Scattered Clouds
10:58 AM 72.0 °F - 67.3 °F 85% 29.94 in 6.0 mi SSE 9.2 mph - N/A   Haze
11:36 AM 71.6 °F - 68.0 °F 88% 29.95 in 5.0 mi SSE 8.1 mph - N/A Rain Light Rain
11:41 AM 71.6 °F - 68.0 °F 88% 29.94 in 4.0 mi SSE 5.8 mph - N/A Rain Light Rain
11:46 AM 71.6 °F - 68.0 °F 88% 29.95 in 5.0 mi SSE 4.6 mph - N/A   Light Drizzle
11:51 AM 71.6 °F - 68.0 °F 88% 29.94 in 4.0 mi SSE 4.6 mph - N/A Rain Light Rain
11:56 AM 71.6 °F - 68.0 °F 88% 29.95 in 4.0 mi South 6.9 mph - N/A Rain Light Rain
11:58 AM 71.6 °F - 68.0 °F 88% 29.94 in 4.0 mi South 5.8 mph - 0.00 in Rain Light Rain
12:03 PM 71.6 °F - 68.0 °F 88% 29.94 in 4.0 mi SSE 3.5 mph - N/A Rain Light Rain
12:07 PM 71.6 °F - 68.0 °F 88% 29.94 in 5.0 mi SSE 4.6 mph - N/A   Partly Cloudy
12:42 PM 71.6 °F - 68.0 °F 88% 29.93 in 5.0 mi NE 18.4 mph 21.9 mph N/A   Light Drizzle
12:43 PM 71.6 °F - 66.2 °F 83% 29.93 in 5.0 mi ENE 18.4 mph 21.9 mph N/A   Light Drizzle
12:48 PM 66.2 °F - 60.8 °F 83% 29.93 in 6.0 mi ENE 10.4 mph 21.9 mph N/A   Light Drizzle
12:53 PM 62.6 °F - 60.8 °F 94% 29.93 in 9.0 mi NE 15.0 mph 19.6 mph N/A   Light Drizzle
12:58 PM 62.4 °F - 59.0 °F 89% 29.92 in 10.0 mi ENE 13.8 mph 21.9 mph 0.00 in   Light Drizzle
1:02 PM 60.8 °F - 57.2 °F 88% 29.93 in 10.0 mi NE 13.8 mph 21.9 mph N/A   Overcast
1:12 PM 57.2 °F - 53.6 °F 88% 29.95 in 10.0 mi NE 10.4 mph 20.7 mph N/A   Light Drizzle
1:22 PM 53.6 °F - 51.8 °F 94% 29.95 in 10.0 mi NNE 15.0 mph - N/A   Overcast
1:32 PM 51.8 °F - 48.2 °F 88% 29.96 in 10.0 mi NNE 16.1 mph - N/A   Overcast
1:58 PM 49.8 °F - 46.0 °F 87% 29.94 in 10.0 mi NNE 17.3 mph 21.9 mph 0.00 in   Overcast
2:58 PM 46.0 °F 38.8 °F 41.5 °F 84% 29.96 in 10.0 mi NNE 18.4 mph - N/A   Overcast
3:04 PM 44.6 °F 37.4 °F 41.0 °F 87% 29.97 in 10.0 mi North 16.1 mph 26.5 mph N/A   Overcast
3:40 PM 42.8 °F 33.8 °F 39.2 °F 87% 29.98 in 8.0 mi North 21.9 mph 28.8 mph N/A   Overcast
3:54 PM 41.0 °F 32.2 °F 37.4 °F 87% 30.00 in 7.0 mi North 18.4 mph 29.9 mph N/A   Overcast
3:58 PM 41.0 °F 32.2 °F 37.4 °F 87% 30.00 in 7.0 mi North 18.4 mph 29.9 mph 0.00 in   Overcast
4:33 PM 39.2 °F 28.3 °F 35.6 °F 87% 30.02 in 10.0 mi North 25.3 mph 34.5 mph N/A   Overcast
4:58 PM 37.2 °F 27.6 °F 32.9 °F 84% 30.03 in 10.0 mi North 17.3 mph 33.4 mph N/A   Overcast
5:58 PM 34.7 °F 22.8 °F 29.7 °F 82% 30.07 in 10.0 mi North 23.0 mph 32.2 mph N/A   Overcast
6:28 PM 32.0 °F 21.6 °F 28.4 °F 87% 30.08 in 10.0 mi North 15.0 mph - N/A   Overcast
6:53 PM 32.0 °F 23.0 °F 28.4 °F 87% 30.07 in 10.0 mi NNE 11.5 mph 23.0 mph N/A   Overcast
6:58 PM 33.3 °F 22.8 °F 27.7 °F 80% 30.08 in 10.0 mi North 16.1 mph 20.7 mph N/A   Overcast
7:08 PM 32.0 °F 23.0 °F 26.6 °F 80% 30.07 in 10.0 mi NNE 11.5 mph - N/A   Overcast
7:28 PM 33.8 °F 24.3 °F 28.4 °F 81% 30.08 in 10.0 mi NNE 13.8 mph 17.3 mph N/A   Overcast
7:48 PM 35.6 °F 26.2 °F 28.4 °F 75% 30.08 in 10.0 mi NNE 15.0 mph 21.9 mph N/A   Overcast
7:58 PM 34.9 °F 25.3 °F 28.4 °F 77% 30.10 in 10.0 mi North 15.0 mph 21.9 mph N/A   Overcast
8:13 PM 35.6 °F 26.2 °F 28.4 °F 75% 30.11 in 10.0 mi North 15.0 mph 26.5 mph N/A   Overcast
8:23 PM 35.6 °F 24.5 °F 28.4 °F 75% 30.12 in 10.0 mi North 20.7 mph 26.5 mph N/A   Overcast
8:43 PM 35.6 °F 24.8 °F 26.6 °F 70% 30.13 in 10.0 mi North 19.6 mph 28.8 mph N/A   Overcast
8:53 PM 35.6 °F 25.2 °F 26.6 °F 70% 30.14 in 10.0 mi NNE 18.4 mph 27.6 mph N/A   Overcast
8:58 PM 34.9 °F 24.6 °F 26.8 °F 72% 30.14 in 10.0 mi NNE 17.3 mph 27.6 mph N/A   Overcast
9:58 PM 33.1 °F 22.2 °F 24.3 °F 70% 30.17 in 10.0 mi North 17.3 mph 28.8 mph N/A   Mostly Cloudy
10:58 PM 30.6 °F 19.8 °F 22.6 °F 72% 30.19 in 10.0 mi NNE 15.0 mph 25.3 mph N/A   Clear
11:58 PM 30.2 °F 18.1 °F 22.6 °F 73% 30.19 in 10.0 mi North 18.4 mph 31.1 mph N/A   Clear